Wind_Speed
19 19 19 19 18 16 15 12 11 10 9 9 10 11 10 9 8 7 7 6 5 4 3 2 2 5 8 10 10 10 8 7 7 2 2 5 8 9 10 10 3 5 6 4 4 4 7 8 9 9 10 11 12 14 15 15 14 11 8 7 8 8 9 10 11 11 8 12 15 2 14 7 5 5 5 6 12 12 13 13 13 19 14 8 11 5 15 15
20 20 19 18 17 16 14 13 11 10 10 9 10 10 10 9 8 6 6 5 4 3 2 2 4 7 9 10 9 8 7 6 6 0 5 8 10 8 7 5 2 4 4 6 7 8 9 8 8 9 10 12 12 13 12 13 13 10 7 6 8 9 10 13 11 11 8 11 17 7 12 6 4 7 9 8 13 11 8 9 10 15 15 14 17 12 6 13
21 20 20 19 17 16 15 13 12 11 10 9 10 10 9 8 7 6 5 4 3 3 3 2 5 9 9 9 8 6 5 1 1 1 2 6 7 5 3 1 2 4 4 9 9 8 8 9 6 7 11 12 11 11 9 10 10 11 9 6 9 9 10 14 9 10 12 10 14 14 10 6 4 5 8 8 12 12 8 8 11 13 13 15 16 14 14 15
22 21 20 19 18 17 15 14 13 12 11 10 10 10 9 8 6 5 4 3 3 3 3 3 7 9 8 7 6 4 3 6 0 4 5 8 5 4 1 1 3 4 1 7 8 7 6 8 6 7 11 11 12 11 8 9 9 10 9 7 11 8 5 10 7 8 12 13 11 13 12 10 8 8 9 9 9 9 10 10 14 17 15 11 11 12 14 14
22 21 20 19 18 17 15 14 13 12 12 11 10 9 9 7 5 3 2 3 3 4 4 3 7 8 7 6 4 1 6 6 4 3 6 8 6 4 2 2 5 5 3 4 7 8 6 8 8 9 10 10 12 10 9 13 9 8 9 8 15 13 7 10 10 7 7 12 13 12 11 11 12 12 12 12 10 8 12 14 13 13 13 10 10 11 6 3
22 21 20 19 18 17 15 14 13 13 12 11 10 9 8 6 3 2 2 3 3 4 3 3 6 7 7 6 3 3 6 2 6 3 7 8 6 3 4 3 5 7 8 7 10 8 8 9 8 10 10 9 11 8 10 13 7 4 9 10 15 16 8 8 10 7 5 7 11 12 12 13 13 11 11 13 12 12 15 17 15 12 12 13 14 14 10 8
22 21 21 20 18 17 15 14 13 13 13 12 11 9 8 5 2 1 3 3 3 2 2 2 5 7 8 8 4 7 8 2 5 4 7 6 4 3 5 6 5 8 11 11 10 7 8 8 10 10 9 9 9 8 7 5 4 4 8 12 14 12 7 8 12 9 6 7 9 11 12 13 12 10 10 12 13 14 14 13 15 16 15 15 15 17 14 9
22 21 21 20 19 17 15 14 14 14 14 13 11 8 6 3 2 2 4 3 2 1 2 2 4 6 8 9 6 9 6 5 3 5 7 5 4 5 5 9 7 7 9 7 5 5 6 7 9 7 7 7 4 5 3 1 7 9 10 14 11 7 6 7 12 12 11 9 8 10 11 12 12 11 12 14 14 10 8 9 11 13 14 12 11 14 16 14
22 21 20 20 19 17 15 15 14 15 15 14 11 7 5 2 2 2 4 3 2 1 2 3 3 4 5 5 7 9 2 7 1 3 8 6 5 4 5 9 6 6 8 4 3 6 5 6 7 5 6 8 7 6 5 1 5 6 10 12 6 5 7 8 10 11 10 9 9 10 11 13 13 12 11 14 16 11 9 12 11 10 11 10 9 12 15 15
22 21 20 19 18 17 15 15 15 16 15 14 11 7 5 2 2 3 4 3 2 1 2 4 2 3 3 3 10 6 6 5 1 2 3 4 3 4 7 6 4 6 7 3 3 6 6 6 6 6 8 8 7 8 7 5 4 8 9 11 9 9 11 10 10 10 9 9 11 11 11 12 13 10 8 12 15 13 12 10 7 7 8 6 6 10 13 14
22 20 20 19 18 17 15 15 15 16 16 15 11 7 4 1 2 3 5 3 2 2 3 4 3 4 3 6 11 3 7 2 0 1 2 2 3 4 6 4 3 6 7 4 4 4 6 6 6 7 6 4 6 7 7 8 7 8 9 11 11 12 12 12 12 12 10 9 11 11 11 12 14 11 9 13 9 5 6 5 3 7 5 4 6 9 12 13
21 20 20 19 18 16 16 16 16 17 17 16 11 6 3 1 2 3 5 4 4 3 4 5 4 4 5 9 6 4 4 0 1 2 3 3 3 2 4 3 4 6 6 6 3 2 5 6 6 9 6 5 6 5 4 4 6 9 9 9 11 12 12 13 11 10 9 5 5 7 8 10 12 12 13 18 8 6 1 4 5 7 4 5 7 8 9 11
22 20 20 20 19 17 16 17 17 17 18 17 12 4 2 1 3 3 5 6 5 4 5 6 4 4 8 6 2 3 2 1 1 0 2 2 3 1 2 2 3 4 4 6 5 2 4 5 6 10 9 7 7 5 5 4 6 8 8 7 8 10 10 12 9 7 6 3 2 4 5 9 11 16 17 14 4 6 3 5 6 5 3 3 6 8 9 9
22 19 20 20 19 17 16 17 18 18 18 17 10 2 1 2 3 4 6 8 7 5 6 7 5 6 8 2 5 3 1 4 3 1 2 4 4 5 1 2 2 3 3 5 6 4 4 4 6 9 8 8 8 7 5 7 7 7 8 7 7 8 4 11 11 7 4 6 5 8 5 8 4 13 11 6 9 7 4 7 8 6 4 3 5 8 11 10
22 19 20 20 20 18 17 18 19 18 17 14 8 3 1 3 4 5 6 8 8 5 5 7 5 5 9 4 5 6 2 6 3 1 3 5 6 5 3 2 1 2 3 4 4 4 4 4 6 10 9 8 7 7 6 6 7 6 6 6 5 4 3 11 10 7 4 4 4 7 6 6 3 8 6 8 8 4 4 8 8 7 6 6 8 8 9 10
22 19 20 20 20 19 18 19 18 17 15 11 7 4 1 3 4 5 6 8 8 5 5 7 6 8 8 2 5 3 1 4 1 1 2 4 6 4 1 3 3 3 4 3 3 3 5 6 8 10 9 6 7 7 6 5 5 5 5 4 2 3 2 7 7 7 5 1 3 6 6 4 2 5 10 12 7 4 6 8 6 7 7 8 9 6 7 8
21 18 20 20 20 19 18 19 18 16 12 8 7 5 2 2 4 4 6 8 9 7 7 8 8 11 8 1 4 2 1 1 4 3 2 3 5 4 3 7 6 5 5 3 4 5 6 7 8 8 6 6 6 6 4 3 3 2 3 4 4 5 4 1 7 7 6 3 5 7 6 5 3 3 12 16 14 9 7 6 5 7 7 8 7 8 10 8
21 19 20 20 20 19 18 18 17 14 9 6 6 5 4 3 4 4 6 6 7 8 8 10 10 8 4 4 4 2 3 1 4 2 3 2 3 3 4 5 4 4 7 6 7 7 7 7 8 4 3 3 3 4 2 2 4 5 3 3 4 4 5 5 3 5 5 5 5 6 6 7 8 4 7 13 10 5 6 6 6 7 6 8 9 11 13 11
22 19 19 20 20 20 18 18 17 13 7 5 7 6 4 5 5 5 7 5 7 7 3 6 9 3 3 1 4 3 4 3 3 4 4 4 3 4 5 5 4 6 8 7 9 8 6 7 5 2 3 3 2 4 4 5 6 8 6 5 6 4 5 7 1 5 5 4 5 6 7 8 10 8 10 12 5 3 8 6 7 9 8 9 11 11 10 12
22 20 19 19 20 20 17 17 17 13 6 4 8 7 2 1 2 4 6 9 10 9 5 1 4 4 4 3 5 4 4 4 6 3 1 4 3 6 10 9 7 6 6 5 5 4 3 5 3 0 3 4 5 6 6 8 8 9 8 6 8 8 6 6 7 6 5 1 5 8 9 10 11 9 8 10 10 9 10 8 8 9 9 8 8 10 15 19
22 21 19 19 20 20 16 16 16 13 7 5 10 10 7 7 3 2 3 9 8 7 7 4 5 4 4 5 8 8 7 7 5 2 2 4 6 10 8 6 5 4 4 7 4 1 1 4 3 3 3 5 7 7 6 7 8 8 8 7 8 7 3 6 11 8 2 1 5 7 10 10 9 8 7 7 8 8 7 4 4 6 7 10 15 20 22 22
22 21 19 18 20 19 15 15 16 13 10 9 10 10 8 9 6 6 8 8 4 4 5 2 7 5 5 5 6 7 9 7 3 3 1 3 7 8 4 3 5 4 4 5 5 2 2 3 3 3 5 5 8 7 7 7 8 8 7 7 5 4 5 7 11 12 4 3 5 7 10 8 7 8 10 7 4 8 7 9 12 14 13 14 16 18 19 19
21 20 19 17 18 18 13 15 17 15 13 11 10 9 8 9 7 6 8 10 5 6 8 4 7 3 5 4 3 5 10 7 3 3 2 5 9 6 4 7 5 2 3 4 3 1 1 2 2 4 5 6 9 7 6 6 7 7 4 5 3 4 5 3 5 8 6 5 5 7 7 6 10 12 12 8 8 13 14 16 16 16 15 16 16 17 17 18
20 20 19 17 17 16 12 13 16 14 11 9 10 11 9 8 8 7 7 9 6 5 4 1 3 3 5 6 4 5 10 7 2 5 4 8 11 6 5 8 3 2 5 6 3 1 2 2 3 5 5 6 8 7 5 4 5 4 6 7 6 4 5 4 4 5 7 6 4 8 6 5 10 11 9 7 10 13 14 15 13 13 13 13 15 16 16 16
19 19 19 16 16 14 12 11 12 12 9 7 11 13 9 8 7 6 6 7 5 3 1 2 2 1 2 4 3 7 8 5 1 5 5 7 10 7 6 7 3 1 4 5 4 1 1 2 3 5 6 5 7 5 4 4 5 5 6 7 11 10 9 8 8 6 6 3 5 6 2 3 6 6 5 3 7 9 12 13 12 13 13 13 13 15 17 17
19 19 19 16 15 14 12 9 10 12 9 7 12 14 9 7 6 4 4 5 3 1 1 1 3 1 2 3 4 8 6 1 2 4 5 4 6 9 6 4 2 3 4 4 4 2 1 2 3 4 5 6 5 1 6 6 5 3 3 7 11 11 10 10 9 7 5 2 2 2 3 1 4 4 6 3 6 7 9 11 11 12 13 14 14 15 16 17
20 19 18 16 15 15 13 9 10 12 10 10 14 14 9 6 3 3 4 5 2 2 2 1 3 3 4 4 5 8 4 3 1 5 6 4 5 8 6 4 4 2 3 4 2 2 3 3 3 4 5 6 3 2 6 7 5 3 3 7 9 10 10 9 7 6 2 3 2 2 4 3 2 2 5 6 6 6 8 8 9 11 12 13 13 14 15 16
19 19 18 15 14 13 13 11 11 11 11 13 14 12 9 3 2 2 4 1 0 2 1 2 4 5 5 4 4 7 4 1 2 4 5 5 6 8 7 4 6 4 3 4 2 4 7 3 3 6 6 3 3 4 4 5 6 4 4 7 7 8 9 7 6 5 1 3 1 4 6 4 3 2 2 6 7 7 8 8 8 12 14 14 13 14 15 16
19 19 18 15 11 11 12 12 11 10 12 14 13 10 7 3 3 2 3 1 1 2 2 2 3 4 5 7 6 6 3 1 1 4 3 5 4 7 6 4 6 8 5 5 2 3 3 3 5 6 5 4 5 6 5 5 7 6 7 9 8 8 9 7 4 3 1 1 3 3 4 6 3 1 2 5 6 7 7 7 9 13 15 15 14 15 17 18
19 19 18 14 10 9 12 10 9 10 13 14 12 7 5 3 0 3 2 1 2 1 3 4 4 6 6 8 5 4 3 1 1 2 3 5 4 7 5 2 4 7 5 5 2 2 1 1 4 3 4 6 8 9 9 8 10 11 11 11 6 2 6 5 3 4 2 2 3 3 3 4 3 1 3 3 5 7 7 7 10 13 14 15 15 15 16 17
19 19 17 13 9 9 10 9 9 11 12 13 10 5 2 2 3 3 1 1 2 5 5 4 6 8 7 7 3 2 2 2 2 4 3 3 4 4 3 0 3 4 3 5 2 1 4 5 3 1 2 7 9 9 8 8 11 10 7 6 1 4 5 4 3 4 2 0 1 1 4 5 3 3 4 4 6 7 8 8 10 12 14 15 15 16 17 17
19 18 15 11 10 11 9 10 12 12 12 12 9 3 2 3 3 2 2 2 3 4 3 3 6 7 7 7 5 2 1 1 3 6 4 2 2 3 2 2 3 4 2 3 1 1 4 3 0 1 2 6 9 7 3 2 7 7 5 6 2 3 2 1 0 0 1 1 4 4 5 6 5 5 5 6 8 9 9 10 11 13 15 16 15 16 17 18
19 17 13 11 11 12 11 10 11 12 12 12 8 3 4 3 1 2 3 3 1 2 3 5 6 6 6 6 4 3 1 0 2 3 2 3 2 0 1 3 4 3 2 4 5 2 2 1 1 3 1 4 8 5 4 4 6 6 5 5 3 1 2 2 1 1 2 1 4 6 4 4 6 4 6 8 8 10 11 12 14 14 14 15 15 16 17 18
18 15 11 11 11 14 16 12 10 13 13 10 6 5 5 3 4 2 3 5 2 2 3 2 4 6 6 3 4 3 2 1 3 3 2 2 3 1 1 2 5 4 2 1 3 1 1 1 1 3 3 4 6 6 5 6 6 5 5 4 4 3 3 4 3 3 3 2 4 5 2 3 3 2 4 8 8 11 13 13 13 14 14 14 15 15 16 17
16 12 10 11 10 12 15 12 11 13 11 8 6 4 3 3 4 4 4 3 3 6 4 2 3 6 4 2 4 3 2 1 3 3 2 1 1 3 3 2 4 5 1 0 2 1 2 2 1 2 3 4 5 5 7 8 5 4 4 3 4 5 4 3 2 3 4 3 2 2 3 5 4 3 2 6 7 10 12 13 14 14 15 15 15 15 16 18
14 10 10 12 8 9 11 9 11 12 9 7 5 2 3 3 4 4 4 4 4 6 8 4 1 5 3 3 1 1 3 1 2 1 2 1 2 2 3 1 4 6 5 2 2 2 2 3 4 4 3 2 5 5 6 7 4 5 4 3 4 4 5 3 1 1 1 1 1 2 4 4 5 2 1 4 8 9 10 11 14 15 16 16 16 17 18 19
14 9 10 8 6 9 11 7 9 10 7 6 5 3 3 3 5 5 5 6 4 2 8 5 2 3 4 1 2 3 3 1 1 1 2 1 3 2 5 3 4 5 6 5 2 2 3 3 7 10 4 3 2 4 5 7 6 5 3 4 2 2 2 3 2 1 2 2 2 4 5 2 3 1 3 5 10 10 10 10 12 14 15 16 17 18 18 19
16 11 7 5 5 10 10 7 8 8 7 6 3 2 3 5 7 7 6 6 5 3 6 4 2 2 6 3 1 3 2 1 0 1 3 1 2 3 5 4 2 2 5 8 4 3 5 4 5 8 3 2 2 2 4 5 4 4 3 3 2 2 2 3 3 3 3 3 3 2 6 3 2 2 5 8 10 10 11 10 9 12 15 16 17 17 18 19
16 12 5 1 5 10 10 8 7 6 6 5 2 1 2 5 8 8 6 5 5 4 4 4 3 1 4 5 5 1 1 1 2 3 3 1 1 2 1 2 4 2 9 11 6 3 5 3 2 7 7 3 2 2 2 3 2 3 2 2 2 2 3 3 3 2 3 4 4 3 1 2 4 5 8 11 10 10 11 9 8 11 15 16 17 18 18 19
14 11 4 2 7 9 9 8 8 7 5 3 3 2 3 4 5 6 6 5 5 3 3 4 2 2 2 4 6 3 1 3 3 4 3 1 1 1 2 4 4 7 12 10 7 5 4 3 2 5 7 6 3 3 3 4 3 3 3 3 4 3 2 2 2 1 3 4 3 5 3 3 3 4 8 11 10 11 12 11 9 10 13 15 16 18 19 19
13 9 2 6 10 8 8 9 7 5 2 2 3 5 5 4 4 6 5 3 4 2 3 5 4 4 3 2 4 3 2 5 3 2 3 1 1 2 4 8 8 8 9 8 5 5 4 4 3 3 4 3 2 5 5 6 4 4 3 3 3 3 3 3 2 1 4 4 3 5 4 3 3 4 6 8 9 11 14 15 12 9 10 12 13 16 18 18
11 6 3 8 9 6 7 8 4 2 4 3 3 5 4 3 4 5 2 2 4 2 2 5 4 4 3 3 5 3 2 5 3 1 2 2 4 3 6 8 7 6 6 5 2 6 4 4 4 2 1 2 7 4 4 5 4 4 2 2 3 3 3 4 4 3 5 5 3 6 4 2 4 6 6 7 10 13 15 16 16 10 7 9 11 13 16 18
10 7 6 9 8 5 6 6 2 2 4 4 3 4 3 3 3 4 2 2 4 2 1 3 4 3 2 3 6 4 3 5 5 3 3 1 7 7 6 7 4 4 6 4 2 6 5 3 3 2 2 3 6 4 6 5 4 2 1 3 4 3 3 4 4 3 5 5 4 5 4 2 4 7 8 9 11 14 14 16 17 11 8 9 12 13 16 18
12 11 7 4 6 5 6 4 3 2 5 5 3 2 1 2 4 6 5 3 1 3 2 2 3 3 2 3 6 5 3 3 5 4 4 4 4 8 6 7 3 3 4 3 4 6 4 2 3 4 2 2 3 2 5 5 3 1 1 3 3 3 4 4 3 3 3 4 4 5 4 2 4 6 8 10 11 14 15 16 17 12 9 10 13 14 17 18
13 11 8 3 3 3 3 4 6 3 4 3 1 1 1 0 3 4 6 4 3 4 3 2 3 5 4 3 5 6 2 3 4 3 3 5 2 8 7 6 2 2 5 6 5 6 4 4 4 4 4 3 2 1 3 2 1 1 1 2 2 3 4 4 3 4 3 5 6 5 4 5 6 7 8 10 10 11 13 16 16 13 11 11 13 14 17 18
9 5 4 3 6 6 3 4 5 4 3 1 2 2 1 1 4 4 2 5 3 3 4 3 4 5 3 3 5 6 4 3 2 3 4 6 0 7 6 5 3 1 6 7 5 4 3 4 5 5 5 4 3 4 4 3 3 4 2 2 2 2 4 3 3 3 3 4 4 2 4 7 9 8 8 9 10 8 11 15 15 15 12 10 12 15 16 17
5 4 5 6 7 7 4 6 7 6 4 2 1 1 2 3 2 5 1 2 1 0 3 3 4 4 1 2 5 5 4 3 4 4 5 7 2 6 7 4 4 3 3 3 3 3 3 5 6 6 8 7 6 6 7 5 5 6 5 4 3 2 3 3 4 4 4 4 3 4 7 8 8 9 8 9 10 9 11 13 12 14 13 12 14 17 17 17
6 4 3 3 4 5 5 6 8 7 5 4 1 1 3 5 3 0 2 1 1 1 3 2 3 4 3 3 4 4 4 4 4 5 4 5 4 3 5 4 6 5 1 3 2 3 4 6 7 7 9 9 9 9 8 7 6 6 6 6 4 4 4 4 5 4 3 4 5 7 8 7 7 8 8 9 9 9 12 16 14 13 13 14 15 17 16 17
10 8 3 3 6 8 4 4 6 6 4 3 2 2 3 4 4 2 1 1 1 2 4 3 3 3 4 4 4 4 4 3 4 5 4 5 6 4 1 2 5 5 3 4 2 2 3 3 5 7 9 10 10 9 8 8 8 6 7 8 7 5 5 5 6 4 4 6 6 6 8 7 6 6 8 11 13 12 13 16 15 12 12 13 15 16 16 17
9 8 6 6 9 8 4 2 5 4 1 2 3 2 3 4 4 2 2 3 2 2 3 4 4 3 4 5 5 5 5 4 4 6 6 5 5 4 3 3 1 2 4 3 1 1 2 3 6 7 7 9 10 8 7 8 8 8 9 8 8 7 6 7 6 3 4 6 5 5 7 6 4 5 9 12 14 14 13 13 13 11 10 12 14 16 17 16
7 7 7 8 7 4 4 5 5 3 2 3 3 1 2 4 3 4 4 4 4 3 3 3 3 3 4 5 6 7 7 6 7 7 6 5 5 4 3 4 5 3 3 3 3 2 3 5 7 7 7 7 7 5 5 7 8 10 10 8 9 9 6 5 5 3 3 4 4 5 6 4 5 8 10 12 13 13 13 13 12 10 9 11 14 16 16 16
8 6 5 7 6 5 7 5 3 4 2 0 1 2 1 2 2 4 5 3 3 4 4 3 3 3 4 6 7 6 6 7 9 9 7 8 10 10 8 8 6 6 5 4 4 4 4 5 6 6 6 7 7 4 3 5 8 7 5 6 8 9 6 5 5 5 4 3 3 4 4 5 7 9 9 10 11 11 13 13 9 8 10 12 14 15 15 16
Wind_Direction
7 5 2 2 1 0 1 359 358 355 348 349 348 349 347 346 345 340 338 339 342 345 354 16 74 109 118 114 113 115 109 96 80 39 268 265 280 280 274 282 291 96 82 67 38 300 246 227 230 222 228 228 222 233 229 220 220 222 225 234 249 248 250 256 258 268 280 300 290 25 55 7 292 290 291 288 271 264 268 275 279 283 293 282 262 205 137 144
6 4 2 2 1 1 1 360 359 353 348 347 347 349 347 346 344 341 344 346 358 6 13 50 114 125 124 119 122 128 126 98 57 29 231 266 285 279 267 275 147 120 58 23 343 283 250 245 235 213 228 234 219 225 224 207 210 228 239 233 242 248 259 262 268 289 304 335 319 344 64 30 325 305 305 298 285 286 270 265 260 261 268 260 258 261 178 160
4 3 2 3 2 2 2 3 1 357 351 348 349 348 346 348 345 345 351 5 31 33 43 90 134 134 131 127 137 148 147 168 5 118 288 301 288 283 278 303 127 141 67 21 345 292 273 285 269 223 234 239 222 211 209 199 202 224 237 244 244 242 257 268 294 325 318 340 324 327 6 352 337 310 293 294 292 297 296 295 282 262 257 253 250 255 252 220
4 3 3 3 4 4 5 5 5 2 356 353 350 346 347 347 344 350 2 40 58 53 60 111 143 143 144 139 150 164 248 286 359 109 350 341 318 309 335 15 78 132 80 8 329 285 285 284 268 251 249 248 230 206 211 218 204 217 225 243 253 251 275 285 324 356 328 339 330 322 331 315 318 310 293 295 287 283 277 271 274 275 278 272 253 250 257 244
6 5 5 5 6 6 7 7 8 6 1 357 350 347 348 345 351 1 37 84 75 66 72 122 151 158 154 144 152 204 286 298 96 119 323 343 327 316 358 49 76 74 47 5 297 274 275 262 257 257 250 259 243 209 228 233 209 233 251 266 270 274 294 294 321 4 337 332 323 312 311 305 305 297 287 282 273 273 274 276 283 276 278 289 273 267 298 335
7 7 6 7 7 7 8 8 9 9 4 357 350 350 348 348 358 5 94 109 92 79 81 117 159 172 166 173 210 263 285 344 113 224 309 335 323 339 14 61 87 36 10 326 288 267 255 249 245 245 238 253 252 228 235 226 191 242 264 265 269 276 296 294 307 350 360 320 304 298 304 303 300 297 288 280 275 276 276 286 299 296 300 317 315 310 341 39
8 7 6 7 7 8 9 8 10 10 6 359 353 353 352 358 11 54 123 131 114 90 87 119 176 187 194 209 239 264 266 76 125 261 313 319 319 41 50 53 55 355 332 301 282 267 260 247 239 246 241 241 251 249 235 209 207 251 266 268 268 276 300 296 296 313 314 298 292 292 295 292 291 292 283 276 271 269 273 281 288 292 300 309 311 310 321 4
7 7 5 5 7 8 9 9 10 7 5 2 358 357 359 17 52 99 141 142 130 138 117 133 186 194 209 216 248 272 252 109 130 301 343 340 354 53 40 13 359 324 314 297 291 294 281 254 256 273 258 255 297 264 230 80 256 253 251 259 271 276 274 278 284 290 286 284 284 277 273 271 271 273 274 275 272 268 274 283 282 278 286 299 296 298 311 327
6 7 6 4 6 8 8 8 7 3 2 2 2 1 7 45 82 127 150 144 149 164 152 174 183 188 210 220 265 275 134 95 90 339 6 360 355 4 334 332 321 296 299 285 274 286 286 275 284 330 297 295 334 280 264 277 253 279 261 257 293 297 274 274 270 270 268 267 269 266 262 261 258 260 265 266 268 274 270 263 268 273 286 306 296 296 315 316
5 6 6 4 4 6 6 4 2 359 356 359 360 1 11 65 97 135 155 153 165 157 185 196 180 199 219 285 284 277 112 96 73 104 7 348 318 298 301 304 297 299 305 289 262 283 303 312 313 322 298 288 292 268 267 270 304 340 294 282 307 293 282 279 274 272 267 266 266 268 267 265 262 256 255 254 249 249 260 258 256 276 285 302 306 304 315 308
5 6 5 4 2 2 3 358 357 354 353 355 352 354 9 72 112 142 160 161 173 168 181 185 195 223 246 284 286 331 95 98 332 188 286 325 280 295 315 304 286 296 302 286 267 292 296 312 318 285 273 305 293 264 250 254 296 312 285 287 284 275 273 262 264 265 261 265 259 266 275 268 262 253 251 260 246 194 267 292 279 289 305 335 335 316 312 307
5 6 5 4 0 358 358 355 354 350 349 349 343 339 349 78 138 147 160 166 163 157 165 176 205 244 289 285 287 26 57 91 311 263 255 296 281 300 334 301 275 288 296 296 298 323 282 292 299 266 276 325 289 279 274 237 289 288 269 277 267 261 252 234 238 245 252 262 253 287 290 261 245 237 236 243 237 101 53 301 282 290 348 356 322 311 309 307
5 6 7 5 1 357 355 355 354 349 347 347 345 325 306 144 161 156 158 165 155 152 163 178 216 268 295 300 55 36 315 237 30 137 188 296 281 218 349 321 283 282 276 300 327 343 282 281 275 272 293 291 262 319 339 253 272 277 250 255 264 263 239 208 200 222 241 157 182 292 280 267 241 215 221 221 199 67 40 324 309 303 2 344 310 314 310 300
4 6 7 6 3 359 355 355 352 349 348 348 351 330 233 167 166 154 162 165 156 161 173 193 231 269 284 295 84 26 273 195 229 223 229 300 273 220 236 298 264 271 262 287 307 300 281 278 262 268 275 265 278 317 293 235 242 260 246 232 242 269 216 164 169 204 214 136 197 254 249 286 256 181 191 132 88 52 349 294 284 280 295 310 306 303 293 286
5 6 7 6 4 1 358 356 352 350 350 354 4 14 170 174 165 155 167 168 165 174 190 210 225 257 268 209 114 28 68 177 210 304 306 308 286 247 211 254 265 246 262 269 278 280 275 267 252 262 255 235 260 277 257 230 219 227 249 239 240 284 112 144 168 198 204 124 189 249 264 288 68 118 121 88 81 48 307 273 257 259 271 280 282 282 284 296
6 7 7 6 4 2 1 359 356 352 352 4 18 28 83 157 164 163 166 172 183 192 204 219 231 250 268 160 129 32 68 185 281 309 304 326 310 314 223 255 274 229 247 262 270 268 251 250 251 268 272 229 232 249 249 247 223 205 249 282 311 278 173 151 179 195 200 233 215 231 268 278 120 122 131 134 155 203 243 250 241 254 265 269 270 273 286 294
7 8 7 6 5 3 2 2 1 357 359 18 30 38 63 156 164 162 166 180 196 206 229 250 273 263 262 265 210 225 106 234 345 295 263 345 314 322 293 258 259 237 240 239 249 249 231 241 243 244 250 233 248 264 266 303 309 278 255 308 335 287 294 168 185 180 161 202 251 245 257 271 268 153 145 168 185 191 234 243 238 259 271 279 292 301 296 296
7 8 7 5 5 3 2 5 6 6 13 35 50 61 74 134 147 165 176 189 210 221 254 261 276 278 245 260 265 28 34 351 351 287 217 325 305 284 280 278 285 244 240 230 224 235 221 226 241 247 253 237 277 287 282 345 299 279 270 289 298 279 287 284 199 144 155 195 238 260 258 274 283 253 220 229 205 179 259 262 274 290 301 307 314 303 298 298
6 8 7 6 5 3 3 5 10 17 33 67 63 65 98 130 146 176 180 200 224 234 277 222 235 270 118 21 359 25 356 323 282 243 226 287 290 261 249 256 275 238 243 230 200 212 226 225 231 292 307 270 312 316 318 328 303 296 306 295 289 271 249 278 281 150 191 222 232 258 270 273 274 265 266 277 293 293 278 287 301 302 301 295 287 283 306 312
4 6 6 6 4 3 3 4 12 21 39 77 35 11 342 143 182 178 190 218 232 260 308 145 256 321 80 32 344 317 296 243 225 216 315 299 270 264 246 231 238 227 251 271 194 180 251 261 250 218 270 295 334 334 320 315 305 296 294 277 271 267 257 298 293 214 169 184 246 259 273 270 271 279 288 296 305 297 290 305 308 302 303 306 319 344 6 0
2 3 5 6 4 4 6 10 19 27 41 49 9 350 348 5 339 339 301 243 230 271 302 4 304 300 50 357 321 310 274 232 205 131 343 303 274 271 254 232 256 238 253 291 293 68 318 286 297 304 326 343 325 310 294 286 286 285 280 269 262 267 317 358 312 288 128 206 265 275 275 271 273 283 293 289 295 298 284 290 340 355 3 16 19 16 14 7
358 1 3 3 4 6 11 21 25 31 46 41 8 349 3 15 345 328 322 280 245 244 258 305 264 242 59 351 300 310 292 261 208 177 237 299 275 277 288 281 279 256 228 246 265 300 328 299 258 296 347 331 290 278 272 274 276 273 263 267 273 293 342 358 306 297 319 275 276 284 278 287 315 340 344 332 13 29 35 58 48 40 33 25 23 19 9 1
355 359 1 1 4 7 13 26 24 21 32 31 12 357 355 359 339 326 314 289 267 222 218 237 273 296 31 331 295 308 293 277 211 144 56 320 294 296 286 268 261 294 293 250 251 231 287 311 288 320 332 294 290 284 261 267 272 272 285 293 268 233 273 311 275 278 288 269 285 313 311 331 352 14 7 353 62 65 59 64 57 47 36 22 16 13 8 358
353 356 358 359 2 6 11 22 23 16 11 8 3 356 349 345 337 344 322 285 261 237 226 289 312 349 356 323 316 290 280 279 306 58 31 312 317 335 304 300 316 4 305 282 293 158 182 305 321 306 292 272 290 291 279 290 289 331 13 327 300 276 283 295 267 253 255 268 355 12 8 354 348 15 15 9 63 68 57 57 47 38 31 19 8 0 360 351
353 354 356 356 359 7 11 13 21 11 350 355 355 342 341 337 322 344 332 284 254 232 146 38 270 206 347 313 281 286 288 273 297 42 15 321 332 328 313 332 345 251 281 281 302 318 165 315 296 279 286 283 280 293 356 351 305 1 31 305 303 320 320 308 298 284 262 284 49 56 53 328 323 9 27 24 73 62 47 43 29 22 16 3 355 351 350 342
353 354 354 354 355 5 11 7 16 6 349 354 347 335 337 325 306 354 337 272 242 195 137 260 267 219 288 291 297 303 313 188 171 3 329 311 327 305 303 325 255 250 301 294 290 277 106 356 310 300 295 280 267 305 33 4 312 336 1 308 308 308 303 298 292 287 265 263 55 115 147 285 302 12 28 50 95 62 37 33 22 15 8 358 354 349 342 333
351 353 352 353 355 4 11 8 18 14 359 345 338 338 342 322 317 24 305 253 237 309 335 318 339 339 288 309 323 301 324 105 209 312 313 331 339 297 290 296 268 255 283 282 297 300 327 353 322 308 291 272 272 50 36 1 321 299 317 319 310 291 293 301 289 286 258 129 42 288 192 147 100 61 24 40 66 45 30 30 18 8 6 2 358 346 333 328
349 350 351 352 355 6 8 6 19 13 349 339 336 339 342 332 83 7 282 270 244 256 19 31 340 325 302 319 289 274 310 125 252 314 307 315 319 282 281 313 307 318 304 286 300 263 275 318 338 311 302 306 356 2 4 334 305 301 317 312 300 287 292 297 281 275 214 129 167 253 201 148 87 132 93 54 43 27 22 20 15 11 5 1 358 348 336 331
346 347 348 350 358 7 2 7 20 360 335 335 337 347 5 73 85 292 252 359 317 227 37 358 321 325 319 310 269 265 316 192 301 347 293 280 278 263 292 358 319 307 299 276 262 221 249 336 338 319 323 347 355 324 286 287 295 288 275 263 254 271 284 280 280 297 345 270 255 249 153 126 89 28 75 47 28 20 11 10 17 11 3 1 358 350 343 339
345 346 344 348 1 1 352 358 16 352 327 328 340 4 36 64 359 252 223 328 290 16 342 305 349 4 328 305 265 257 315 313 306 320 299 303 271 245 265 357 305 287 279 269 254 113 126 249 277 300 342 331 323 298 269 264 277 271 267 263 232 272 312 301 330 357 346 230 234 287 27 103 145 130 69 38 27 21 7 9 14 6 0 0 354 346 345 342
346 346 343 349 357 355 348 339 349 344 325 330 353 28 18 308 245 251 14 242 257 17 340 294 7 8 330 312 273 204 318 351 310 265 256 272 261 269 272 20 322 292 256 249 220 143 212 201 214 264 338 313 311 300 267 243 264 276 300 315 36 65 353 328 10 12 351 15 61 30 49 69 111 118 90 60 44 33 18 12 7 2 1 358 351 347 344 340
346 346 345 353 354 356 352 326 329 333 329 341 355 17 310 265 216 289 354 235 249 11 2 319 5 358 326 307 278 265 31 50 314 300 316 317 316 348 345 40 335 300 257 261 307 4 242 217 358 225 228 311 322 323 304 277 292 305 346 348 16 77 360 310 184 30 176 323 14 50 68 69 88 104 90 63 45 32 23 19 9 2 2 359 354 351 348 343
347 348 351 5 5 2 352 331 329 330 339 351 339 286 263 282 359 344 360 35 302 350 354 339 348 325 311 312 309 338 345 216 311 299 325 317 295 226 130 47 356 334 28 330 332 351 273 304 325 243 202 337 335 346 12 7 326 321 354 357 14 61 299 295 242 154 135 129 63 74 74 90 115 102 61 55 44 29 22 20 16 9 7 6 360 356 353 348
347 355 6 11 8 5 359 348 332 324 336 347 320 270 263 312 25 1 8 41 16 323 340 322 307 281 271 315 334 309 250 299 318 280 232 263 269 205 132 46 8 3 88 293 298 311 289 291 280 308 352 352 348 3 6 337 305 323 7 6 20 25 338 347 2 15 20 16 70 88 74 78 132 172 45 46 39 36 23 11 18 18 10 8 4 0 355 349
346 1 14 9 7 3 357 338 311 320 338 335 295 279 304 354 23 5 7 11 334 341 328 253 312 290 228 164 311 272 211 15 328 291 313 309 309 2 341 355 6 347 21 158 270 231 240 249 247 356 344 329 346 1 352 336 308 321 357 13 38 21 334 334 7 3 5 357 15 80 88 84 122 183 84 45 29 36 24 3 7 12 6 7 6 2 357 351
345 348 346 356 7 349 342 317 302 324 341 317 296 332 26 20 1 11 9 316 336 352 312 294 356 288 237 132 330 105 135 299 326 325 325 345 66 16 318 30 26 340 344 360 272 256 246 262 291 286 242 332 345 330 338 353 334 307 337 35 38 360 325 317 177 187 244 267 291 99 105 106 112 126 316 26 23 18 22 13 3 359 0 3 1 357 354 351
350 341 319 330 346 332 334 315 298 318 322 303 313 1 32 30 8 21 17 331 346 343 297 306 120 283 307 114 134 96 114 263 348 70 288 340 71 334 299 19 32 338 345 351 306 320 321 262 270 273 232 130 323 296 327 352 344 326 4 39 348 295 320 317 291 259 247 273 324 105 123 147 109 106 297 24 27 3 12 22 5 357 358 358 356 354 352 350
348 343 312 293 320 330 329 303 291 308 297 282 305 1 19 46 37 28 25 350 336 305 296 316 88 321 323 340 74 79 72 314 227 209 260 207 104 307 312 356 330 260 12 358 324 306 312 273 259 285 294 132 224 281 328 330 358 14 5 14 325 296 353 334 326 330 309 315 329 121 138 134 47 15 346 18 18 356 4 11 360 359 358 355 352 351 352 351
342 332 305 264 329 325 316 305 309 307 284 283 337 45 21 48 44 25 28 8 324 309 314 334 18 341 309 331 343 360 175 275 288 282 270 190 154 268 301 331 283 322 20 359 327 319 314 292 297 307 317 358 344 344 342 305 16 29 335 20 24 334 347 342 321 314 309 318 321 305 175 90 42 2 348 1 3 354 354 355 1 5 357 354 352 350 354 353
337 311 281 22 339 313 299 303 304 281 262 302 12 54 41 42 35 15 29 14 320 308 331 336 345 313 321 334 319 316 277 258 281 307 302 109 125 222 33 7 345 6 4 338 314 340 321 282 313 306 319 8 4 309 356 8 3 3 355 23 13 346 355 322 286 292 323 320 316 313 327 76 69 358 345 355 358 354 352 352 2 6 357 356 354 349 350 349
323 292 277 2 332 311 301 295 286 274 272 2 35 54 35 17 3 360 22 360 304 325 338 317 308 306 319 310 294 324 329 273 264 303 304 359 265 246 54 31 12 6 348 316 320 12 349 310 327 313 327 14 253 269 351 18 360 358 12 16 355 357 5 319 294 33 347 325 310 310 327 58 44 352 353 360 351 349 356 351 344 356 4 358 353 349 346 345
308 290 6 349 327 330 325 300 284 6 45 46 62 64 25 334 344 340 336 309 309 341 338 307 309 310 305 300 304 324 303 276 267 273 281 25 23 29 72 52 19 354 321 292 340 35 11 303 301 319 24 266 257 274 29 29 359 350 15 28 350 357 17 335 329 360 336 326 320 307 314 67 35 347 351 12 356 345 351 344 334 352 21 360 355 351 343 345
306 307 343 344 340 343 311 289 280 52 75 62 44 63 32 344 339 297 283 34 341 306 317 308 309 325 332 316 307 322 340 299 302 331 305 42 70 70 72 64 45 336 312 294 1 21 354 284 294 319 127 228 272 329 17 354 325 292 58 46 4 360 22 343 335 341 319 329 340 316 314 92 57 348 346 12 359 338 341 340 336 360 34 6 360 355 341 344
310 303 295 321 353 335 305 319 355 30 87 71 19 63 85 356 357 320 319 37 10 274 296 305 291 290 275 268 280 304 360 310 301 350 334 307 88 97 72 59 65 307 340 4 2 356 328 301 333 307 252 233 266 338 351 325 298 276 25 35 4 357 3 339 320 291 294 351 348 312 312 34 36 347 346 8 353 330 337 340 338 360 31 13 2 354 341 341
308 287 252 248 349 311 304 4 357 359 85 92 266 251 230 165 52 347 314 322 330 322 322 292 269 272 280 308 296 286 270 247 288 350 332 293 94 106 88 74 83 305 36 45 352 332 310 304 325 308 304 323 294 293 332 323 299 318 14 3 339 356 360 348 320 289 309 359 341 315 322 343 349 348 360 3 335 323 340 342 339 350 9 16 5 349 339 339
318 307 280 335 333 293 299 26 357 346 36 49 254 272 315 194 142 130 332 324 344 341 315 290 268 264 287 339 292 267 244 206 255 311 302 289 218 110 102 107 135 3 31 30 335 309 297 289 290 288 292 303 302 296 305 314 309 301 290 291 302 343 347 329 303 308 338 329 318 4 353 328 331 349 4 344 319 336 354 342 340 347 356 15 3 340 336 343
296 346 355 351 323 304 2 34 3 355 2 323 284 308 314 287 196 150 123 338 14 325 289 299 289 276 288 307 277 270 270 230 226 262 289 296 286 117 110 113 125 98 19 349 291 288 291 285 293 295 288 294 299 292 295 296 289 290 287 274 263 280 308 304 291 315 334 303 305 12 356 330 328 339 344 328 330 1 353 333 347 357 359 16 2 338 338 348
299 338 1 4 316 312 20 27 351 348 338 301 291 291 290 291 291 182 120 36 40 200 224 238 282 282 284 284 279 278 272 257 253 266 275 287 282 141 118 109 113 116 214 264 270 319 298 278 291 295 291 300 301 291 293 287 270 274 280 276 265 249 255 266 274 292 311 291 303 337 339 325 316 323 329 331 351 4 336 333 354 360 359 10 356 338 342 351
337 344 17 25 311 303 351 21 334 326 325 316 303 244 261 280 303 338 117 142 293 227 236 267 278 265 259 263 269 275 275 274 289 296 300 309 311 311 325 63 109 140 212 250 259 317 301 292 313 311 302 301 294 287 288 280 272 271 268 273 278 259 248 259 263 275 294 288 298 323 322 307 296 313 332 345 1 359 331 332 344 345 353 360 346 338 347 353
344 347 359 335 300 301 334 325 300 298 260 268 272 249 248 266 301 333 201 213 264 244 244 279 288 261 248 255 259 263 273 287 292 301 315 320 319 311 294 320 20 186 224 263 299 259 259 307 329 320 301 293 289 290 289 280 276 274 270 276 281 271 261 267 268 270 282 289 307 312 294 285 297 340 352 354 355 344 327 329 336 340 350 348 341 343 345 349
325 328 335 314 296 312 301 263 274 296 248 232 236 205 270 269 315 355 310 275 292 293 270 279 293 277 250 251 254 255 268 284 275 274 287 281 278 299 318 335 344 328 268 268 281 238 234 286 307 301 290 294 302 303 297 294 285 272 266 260 254 249 250 272 279 267 270 290 299 289 283 296 331 354 360 351 341 331 330 336 338 341 346 343 344 345 342 345
327 314 310 297 287 298 291 271 267 284 284 269 189 165 252 309 13 355 310 280 271 298 329 344 307 273 242 244 254 265 285 295 281 272 269 252 249 256 255 248 256 270 273 282 291 273 264 282 296 296 297 300 300 294 289 299 292 279 280 271 242 222 219 251 264 256 261 269 263 279 296 303 325 359 3 338 332 334 333 335 339 348 352 348 345 342 341 344
Height
1525 1523 1522 1520 1519 1518 1516 1515 1514 1513 1512 1512 1511 1510 1509 1508 1507 1506 1505 1504 1504 1503 1503 1503 1503 1503 1503 1503 1504 1503 1504 1503 1503 1504 1505 1505 1505 1504 1504 1505 1505 1505 1504 1504 1503 1504 1505 1505 1505 1505 1505 1504 1504 1502 1501 1500 1500 1500 1500 1503 1502 1497 1492 1486 1483 1480 1478 1477 1471 1468 1472 1474 1476 1477 1480 1483 1484 1483 1484 1486 1487 1486 1486 1487 1488 1489 1489 1491
1525 1523 1522 1520 1519 1518 1516 1515 1514 1513 1512 1512 1511 1510 1509 1508 1507 1506 1505 1505 1504 1504 1503 1503 1503 1504 1504 1504 1504 1504 1504 1503 1504 1505 1506 1505 1505 1504 1504 1504 1504 1504 1504 1503 1503 1504 1504 1503 1503 1504 1503 1502 1500 1499 1498 1497 1498 1498 1497 1499 1499 1493 1487 1481 1478 1476 1476 1480 1475 1470 1474 1479 1482 1482 1483 1486 1484 1483 1484 1486 1488 1487 1488 1489 1489 1490 1491 1492
1525 1523 1522 1520 1519 1517 1516 1515 1514 1513 1512 1512 1511 1510 1509 1508 1507 1506 1506 1505 1505 1504 1504 1504 1504 1505 1505 1505 1504 1504 1504 1504 1504 1505 1505 1505 1505 1504 1504 1504 1504 1504 1504 1503 1503 1504 1504 1503 1502 1502 1501 1499 1497 1496 1495 1495 1496 1497 1496 1498 1493 1487 1484 1480 1478 1479 1480 1482 1480 1476 1478 1482 1485 1487 1487 1488 1487 1485 1486 1487 1487 1486 1486 1487 1487 1489 1491 1493
1525 1523 1522 1520 1519 1517 1516 1515 1514 1513 1512 1512 1511 1510 1509 1508 1507 1506 1506 1506 1506 1505 1505 1505 1505 1505 1505 1506 1505 1505 1505 1504 1504 1505 1505 1505 1504 1504 1504 1504 1504 1504 1504 1503 1504 1505 1504 1503 1502 1502 1500 1497 1494 1494 1494 1493 1494 1493 1494 1495 1488 1482 1483 1482 1480 1484 1485 1485 1485 1484 1484 1486 1487 1489 1489 1489 1491 1489 1487 1488 1488 1486 1486 1486 1487 1489 1490 1491
1525 1523 1522 1520 1519 1517 1516 1515 1514 1514 1512 1511 1511 1510 1509 1508 1507 1507 1506 1506 1506 1506 1506 1506 1506 1506 1506 1506 1506 1506 1505 1505 1505 1505 1505 1505 1505 1504 1504 1504 1504 1504 1504 1504 1505 1505 1504 1503 1502 1501 1500 1496 1492 1491 1492 1491 1491 1491 1490 1490 1486 1482 1484 1484 1483 1486 1490 1491 1491 1489 1489 1489 1488 1489 1490 1489 1492 1491 1488 1487 1486 1485 1486 1486 1487 1489 1489 1489
1526 1524 1522 1521 1519 1518 1516 1516 1515 1514 1512 1511 1511 1510 1509 1508 1508 1507 1507 1507 1507 1507 1507 1506 1507 1507 1507 1507 1506 1506 1506 1506 1505 1505 1505 1505 1505 1505 1505 1505 1504 1504 1504 1503 1504 1504 1503 1502 1501 1499 1497 1495 1490 1489 1489 1488 1490 1494 1491 1489 1487 1484 1485 1486 1486 1489 1492 1494 1494 1492 1491 1490 1489 1489 1490 1490 1490 1490 1489 1488 1487 1486 1487 1488 1487 1488 1489 1491
1526 1525 1523 1521 1520 1518 1517 1516 1515 1514 1513 1511 1510 1510 1509 1508 1508 1508 1508 1508 1507 1507 1507 1507 1507 1507 1507 1507 1507 1506 1506 1506 1505 1506 1505 1505 1505 1505 1505 1505 1505 1504 1504 1503 1503 1503 1501 1500 1499 1496 1495 1493 1489 1487 1486 1487 1490 1494 1493 1489 1487 1486 1487 1490 1490 1490 1493 1494 1494 1493 1493 1491 1491 1492 1491 1490 1490 1489 1490 1490 1490 1489 1489 1490 1489 1489 1490 1492
1527 1525 1523 1522 1520 1519 1517 1516 1515 1514 1513 1512 1511 1510 1509 1508 1508 1508 1508 1508 1508 1508 1508 1507 1507 1507 1507 1507 1508 1506 1505 1506 1506 1505 1505 1505 1505 1505 1505 1505 1505 1505 1505 1504 1503 1502 1501 1499 1497 1495 1494 1490 1488 1487 1487 1490 1492 1492 1492 1488 1486 1487 1490 1492 1492 1492 1493 1494 1494 1494 1493 1493 1492 1493 1491 1490 1489 1488 1490 1491 1491 1491 1491 1491 1491 1491 1490 1491
1528 1526 1524 1522 1521 1519 1518 1517 1516 1514 1513 1512 1511 1510 1509 1509 1509 1509 1509 1509 1509 1509 1508 1508 1508 1508 1508 1508 1509 1507 1505 1507 1507 1505 1505 1506 1506 1506 1506 1505 1506 1506 1505 1504 1504 1503 1501 1499 1497 1497 1496 1492 1491 1490 1488 1493 1493 1489 1488 1486 1485 1488 1490 1492 1492 1492 1492 1493 1493 1493 1492 1492 1491 1492 1491 1490 1490 1489 1490 1491 1491 1490 1491 1491 1492 1493 1492 1492
1528 1526 1525 1523 1521 1520 1518 1517 1516 1515 1513 1512 1511 1510 1510 1509 1509 1509 1509 1509 1509 1509 1509 1509 1509 1509 1509 1509 1509 1506 1506 1507 1508 1507 1507 1507 1507 1507 1506 1506 1506 1506 1504 1504 1503 1503 1501 1500 1499 1499 1498 1494 1493 1492 1490 1492 1491 1489 1489 1487 1487 1490 1490 1491 1491 1491 1491 1492 1492 1492 1491 1490 1490 1491 1490 1488 1487 1488 1488 1489 1490 1491 1491 1492 1493 1494 1494 1494
1528 1527 1525 1523 1521 1520 1519 1517 1516 1515 1514 1512 1512 1511 1510 1510 1510 1510 1510 1510 1510 1510 1510 1509 1509 1509 1509 1510 1508 1506 1507 1508 1508 1508 1508 1508 1507 1507 1507 1506 1506 1506 1505 1503 1503 1503 1503 1502 1501 1500 1498 1495 1493 1492 1491 1491 1492 1492 1492 1491 1490 1490 1490 1490 1490 1491 1490 1490 1490 1490 1489 1489 1489 1489 1489 1486 1484 1487 1489 1489 1491 1492 1491 1493 1495 1495 1495 1495
1529 1527 1525 1524 1522 1520 1519 1518 1516 1515 1513 1512 1511 1511 1510 1510 1510 1510 1510 1510 1511 1510 1510 1510 1510 1509 1509 1509 1508 1507 1508 1508 1508 1508 1508 1507 1507 1507 1507 1506 1506 1506 1505 1503 1503 1503 1503 1503 1502 1501 1498 1497 1495 1492 1491 1491 1492 1493 1492 1493 1490 1488 1488 1488 1488 1489 1489 1489 1489 1489 1492 1490 1486 1487 1486 1485 1485 1487 1491 1492 1492 1493 1493 1495 1496 1496 1496 1495
1529 1528 1526 1524 1522 1521 1519 1518 1516 1515 1513 1512 1511 1510 1510 1510 1511 1511 1511 1511 1511 1511 1511 1510 1510 1510 1509 1508 1508 1508 1508 1508 1508 1508 1508 1508 1507 1507 1507 1507 1506 1506 1505 1504 1503 1503 1504 1503 1503 1501 1498 1497 1494 1492 1493 1492 1493 1493 1491 1491 1490 1487 1484 1482 1485 1487 1486 1488 1489 1492 1498 1491 1479 1480 1482 1482 1485 1488 1493 1494 1493 1494 1494 1496 1497 1497 1496 1496
1530 1528 1526 1525 1523 1521 1520 1518 1517 1515 1513 1512 1510 1510 1510 1511 1511 1511 1511 1512 1512 1512 1511 1511 1510 1510 1510 1509 1508 1508 1508 1508 1508 1507 1508 1507 1506 1506 1506 1506 1506 1505 1505 1504 1504 1503 1503 1503 1503 1501 1499 1497 1494 1493 1492 1490 1492 1490 1488 1488 1487 1486 1480 1477 1483 1486 1486 1488 1488 1491 1498 1488 1473 1474 1479 1482 1488 1492 1495 1495 1495 1495 1495 1496 1497 1497 1496 1495
1530 1528 1527 1526 1524 1522 1520 1519 1517 1515 1513 1512 1510 1510 1510 1511 1511 1511 1512 1512 1512 1512 1511 1511 1510 1510 1510 1508 1508 1508 1507 1506 1507 1507 1508 1507 1506 1505 1505 1505 1505 1505 1505 1504 1504 1503 1503 1503 1502 1499 1496 1495 1494 1494 1491 1489 1488 1486 1491 1488 1481 1483 1481 1477 1481 1483 1485 1487 1486 1490 1495 1486 1475 1476 1480 1485 1490 1493 1496 1495 1494 1495 1495 1496 1496 1496 1496 1495
1531 1529 1528 1526 1524 1522 1521 1519 1517 1515 1513 1512 1511 1511 1511 1511 1511 1512 1512 1513 1513 1512 1512 1511 1510 1510 1509 1507 1507 1507 1506 1506 1507 1508 1507 1506 1506 1505 1505 1505 1504 1504 1504 1504 1503 1503 1503 1501 1500 1498 1495 1493 1493 1491 1488 1487 1484 1482 1487 1487 1482 1484 1483 1481 1482 1480 1482 1485 1485 1489 1492 1485 1478 1479 1482 1486 1491 1493 1494 1493 1494 1494 1494 1494 1494 1494 1495 1495
1531 1530 1528 1526 1525 1523 1521 1519 1517 1515 1514 1513 1512 1511 1512 1512 1512 1513 1512 1513 1512 1512 1512 1510 1510 1510 1508 1506 1506 1506 1506 1507 1507 1507 1507 1507 1506 1505 1505 1504 1503 1503 1503 1503 1503 1502 1501 1499 1498 1496 1492 1490 1489 1486 1491 1497 1497 1491 1488 1488 1486 1484 1482 1484 1484 1479 1480 1486 1486 1486 1487 1484 1480 1479 1482 1485 1487 1489 1491 1491 1492 1493 1493 1493 1493 1494 1494 1494
1532 1530 1529 1527 1525 1523 1521 1520 1518 1516 1514 1513 1513 1512 1512 1512 1512 1512 1512 1512 1512 1512 1512 1510 1510 1511 1509 1505 1504 1505 1506 1507 1507 1507 1507 1507 1506 1505 1505 1503 1502 1502 1501 1500 1500 1499 1498 1497 1494 1492 1490 1490 1489 1489 1498 1505 1504 1500 1494 1492 1492 1487 1487 1486 1483 1480 1481 1486 1487 1487 1487 1485 1481 1480 1481 1482 1482 1485 1488 1489 1491 1491 1493 1494 1494 1495 1494 1494
1533 1531 1529 1527 1525 1524 1522 1520 1518 1516 1515 1514 1514 1513 1513 1513 1513 1513 1512 1513 1513 1512 1510 1508 1508 1509 1508 1505 1505 1506 1507 1507 1507 1506 1506 1506 1505 1505 1503 1503 1502 1501 1499 1497 1495 1494 1495 1493 1491 1496 1498 1495 1491 1491 1495 1497 1495 1495 1492 1492 1493 1490 1488 1484 1481 1481 1482 1485 1487 1488 1488 1486 1483 1481 1480 1480 1481 1484 1487 1488 1491 1492 1493 1494 1495 1495 1495 1496
1533 1531 1530 1528 1526 1524 1522 1521 1519 1517 1516 1516 1515 1514 1514 1513 1513 1512 1512 1512 1511 1509 1506 1506 1506 1504 1504 1506 1506 1506 1507 1507 1506 1505 1506 1505 1505 1504 1501 1500 1498 1496 1495 1493 1491 1491 1492 1493 1494 1499 1500 1495 1492 1491 1492 1493 1492 1492 1490 1491 1491 1488 1487 1484 1482 1479 1478 1486 1489 1487 1488 1486 1484 1482 1481 1482 1483 1485 1488 1489 1492 1493 1493 1494 1494 1495 1495 1496
1533 1532 1530 1528 1526 1524 1523 1521 1520 1519 1518 1517 1516 1515 1515 1515 1514 1514 1513 1510 1509 1509 1507 1506 1506 1504 1505 1508 1507 1506 1506 1505 1503 1504 1506 1504 1504 1502 1498 1495 1494 1494 1494 1491 1491 1490 1493 1500 1499 1496 1494 1493 1493 1493 1492 1493 1492 1491 1491 1490 1487 1486 1487 1487 1486 1480 1478 1487 1489 1486 1487 1486 1484 1484 1483 1484 1486 1487 1487 1490 1493 1494 1495 1496 1497 1497 1497 1498
1534 1532 1530 1529 1527 1525 1524 1522 1521 1520 1519 1518 1518 1517 1517 1517 1517 1517 1515 1511 1508 1509 1508 1507 1506 1505 1506 1508 1507 1506 1505 1502 1501 1503 1504 1504 1503 1500 1496 1494 1494 1493 1491 1491 1492 1494 1499 1504 1500 1493 1493 1494 1493 1491 1491 1492 1491 1490 1489 1489 1490 1491 1491 1492 1491 1484 1481 1487 1489 1488 1487 1485 1485 1487 1486 1487 1489 1490 1489 1492 1496 1498 1499 1500 1501 1501 1501 1501
1534 1532 1530 1529 1527 1526 1524 1523 1522 1520 1519 1519 1519 1519 1518 1518 1517 1517 1517 1513 1509 1507 1507 1507 1506 1505 1506 1508 1507 1506 1505 1501 1500 1502 1503 1503 1502 1499 1497 1494 1491 1491 1491 1491 1493 1501 1507 1503 1495 1493 1494 1494 1492 1489 1489 1491 1489 1488 1489 1492 1497 1498 1497 1500 1498 1490 1486 1488 1489 1489 1490 1492 1493 1492 1491 1491 1491 1493 1495 1497 1501 1503 1504 1505 1506 1506 1505 1504
1534 1532 1531 1529 1527 1526 1524 1523 1522 1521 1521 1520 1520 1519 1518 1518 1517 1516 1516 1513 1508 1506 1506 1506 1506 1507 1507 1507 1506 1506 1505 1501 1500 1502 1504 1505 1501 1499 1498 1493 1490 1493 1496 1492 1491 1500 1506 1499 1494 1494 1493 1493 1493 1489 1488 1491 1491 1490 1494 1496 1496 1493 1491 1494 1494 1489 1488 1489 1490 1492 1501 1511 1509 1502 1499 1496 1494 1497 1499 1502 1504 1505 1507 1508 1509 1509 1508 1507
1534 1532 1531 1529 1528 1526 1524 1524 1522 1522 1522 1521 1521 1519 1518 1518 1517 1517 1517 1514 1510 1507 1506 1507 1507 1507 1508 1507 1507 1505 1502 1500 1501 1503 1505 1505 1504 1502 1499 1496 1495 1497 1498 1494 1493 1500 1501 1496 1494 1494 1493 1491 1491 1492 1491 1493 1494 1495 1496 1495 1491 1489 1488 1489 1488 1488 1493 1498 1496 1498 1516 1529 1519 1507 1506 1504 1501 1502 1504 1505 1507 1508 1509 1510 1510 1510 1510 1509
1534 1533 1531 1529 1528 1526 1525 1524 1523 1523 1522 1522 1521 1519 1518 1518 1517 1518 1517 1515 1515 1508 1506 1509 1507 1507 1508 1507 1506 1504 1502 1502 1502 1504 1506 1506 1506 1504 1501 1498 1497 1497 1497 1495 1496 1498 1497 1495 1494 1494 1494 1491 1491 1495 1494 1492 1497 1500 1496 1491 1489 1489 1489 1489 1489 1490 1497 1504 1498 1495 1516 1533 1526 1513 1508 1508 1508 1507 1507 1508 1510 1511 1512 1513 1512 1512 1512 1511
1534 1532 1531 1529 1528 1526 1525 1525 1524 1523 1522 1523 1521 1519 1519 1517 1517 1519 1518 1522 1522 1511 1507 1509 1508 1508 1507 1506 1506 1506 1507 1507 1504 1505 1506 1506 1506 1505 1503 1499 1497 1497 1496 1497 1502 1501 1496 1496 1496 1494 1493 1491 1493 1496 1494 1493 1498 1500 1492 1489 1490 1490 1489 1489 1489 1491 1495 1500 1500 1500 1512 1526 1528 1520 1511 1509 1511 1511 1510 1512 1513 1513 1513 1514 1514 1514 1513 1512
1534 1532 1531 1529 1528 1527 1526 1525 1524 1524 1524 1523 1520 1520 1519 1517 1519 1518 1522 1533 1526 1509 1508 1509 1507 1508 1506 1506 1507 1505 1506 1506 1506 1506 1506 1507 1506 1504 1502 1499 1498 1497 1495 1500 1509 1506 1498 1498 1498 1495 1494 1494 1494 1494 1493 1494 1497 1494 1488 1489 1491 1488 1488 1487 1487 1490 1492 1498 1509 1508 1510 1523 1528 1519 1511 1512 1514 1515 1514 1512 1513 1513 1513 1514 1514 1514 1513 1511
1534 1532 1531 1529 1528 1527 1526 1525 1525 1525 1525 1522 1520 1521 1518 1518 1520 1517 1525 1536 1521 1506 1510 1509 1507 1509 1507 1507 1507 1504 1503 1503 1505 1506 1504 1505 1505 1503 1502 1501 1501 1500 1497 1499 1505 1504 1499 1499 1499 1496 1497 1496 1494 1493 1491 1493 1494 1489 1487 1487 1487 1487 1487 1485 1486 1491 1492 1502 1513 1503 1496 1518 1535 1523 1513 1517 1518 1517 1516 1512 1513 1514 1515 1515 1514 1514 1513 1511
1534 1532 1531 1529 1528 1527 1526 1526 1526 1526 1525 1522 1521 1520 1519 1520 1521 1524 1534 1535 1516 1509 1512 1508 1507 1510 1508 1507 1506 1503 1503 1502 1504 1505 1504 1505 1504 1502 1502 1502 1502 1501 1500 1498 1499 1501 1500 1500 1499 1497 1498 1496 1494 1492 1489 1490 1490 1485 1483 1481 1483 1492 1494 1490 1490 1494 1503 1511 1512 1499 1487 1505 1531 1528 1518 1519 1518 1516 1516 1514 1515 1516 1515 1516 1515 1514 1513 1512
1533 1532 1530 1529 1528 1527 1526 1526 1526 1525 1524 1522 1521 1520 1520 1520 1521 1529 1535 1524 1513 1514 1515 1510 1509 1510 1509 1509 1506 1504 1503 1503 1504 1503 1503 1503 1502 1501 1501 1504 1505 1504 1504 1502 1500 1500 1499 1499 1499 1496 1497 1496 1493 1491 1488 1487 1485 1482 1480 1478 1487 1503 1507 1506 1506 1510 1522 1520 1502 1492 1488 1498 1521 1526 1518 1516 1515 1515 1516 1516 1517 1517 1516 1516 1516 1515 1513 1512
1533 1532 1530 1529 1528 1527 1527 1527 1525 1524 1523 1522 1522 1521 1522 1523 1523 1527 1523 1515 1518 1521 1516 1513 1513 1512 1511 1509 1506 1503 1503 1506 1506 1503 1502 1502 1503 1503 1503 1507 1510 1512 1515 1511 1505 1507 1504 1497 1496 1496 1496 1495 1493 1492 1490 1489 1486 1483 1482 1484 1498 1517 1523 1522 1519 1518 1523 1514 1493 1488 1494 1506 1519 1520 1514 1514 1515 1515 1517 1517 1517 1517 1517 1516 1516 1515 1514 1513
1533 1531 1530 1529 1528 1527 1527 1526 1524 1524 1523 1522 1522 1520 1522 1526 1526 1522 1515 1516 1523 1521 1515 1516 1515 1514 1513 1510 1507 1504 1504 1506 1506 1504 1504 1504 1504 1505 1504 1506 1507 1513 1523 1522 1517 1520 1516 1502 1495 1497 1496 1495 1494 1495 1497 1497 1492 1487 1486 1490 1502 1516 1525 1523 1515 1512 1512 1503 1492 1490 1499 1514 1522 1517 1513 1514 1516 1517 1517 1518 1519 1518 1518 1517 1516 1515 1515 1513
1532 1531 1530 1529 1528 1526 1525 1525 1525 1524 1523 1522 1522 1520 1522 1527 1524 1518 1516 1519 1520 1516 1515 1517 1515 1514 1513 1512 1510 1507 1507 1507 1504 1504 1504 1503 1505 1506 1505 1507 1506 1510 1521 1528 1525 1525 1529 1521 1506 1500 1499 1497 1495 1495 1498 1497 1493 1488 1483 1488 1498 1507 1518 1520 1515 1514 1511 1504 1497 1495 1505 1520 1526 1521 1516 1514 1515 1517 1518 1518 1518 1519 1518 1517 1516 1515 1515 1514
1532 1531 1531 1528 1527 1526 1525 1526 1525 1524 1524 1523 1521 1519 1523 1527 1523 1519 1521 1521 1518 1516 1515 1513 1514 1515 1512 1512 1511 1505 1507 1510 1505 1504 1505 1505 1508 1509 1509 1508 1508 1508 1514 1525 1525 1521 1530 1528 1508 1499 1500 1498 1496 1496 1494 1495 1496 1489 1482 1490 1501 1503 1507 1512 1514 1512 1510 1513 1509 1504 1511 1517 1519 1519 1513 1512 1515 1515 1518 1519 1517 1519 1518 1517 1517 1515 1515 1514
1532 1530 1530 1528 1527 1527 1527 1527 1525 1523 1524 1523 1521 1520 1521 1523 1520 1520 1523 1521 1519 1521 1519 1513 1515 1517 1511 1510 1511 1507 1508 1510 1507 1507 1508 1506 1509 1511 1510 1508 1509 1509 1510 1518 1522 1518 1525 1524 1507 1501 1501 1497 1499 1499 1494 1497 1500 1493 1490 1499 1502 1499 1500 1508 1513 1509 1511 1521 1515 1506 1514 1516 1516 1521 1513 1509 1514 1513 1516 1519 1518 1519 1518 1517 1517 1515 1515 1514
1531 1530 1529 1529 1529 1529 1527 1526 1525 1524 1524 1523 1523 1521 1518 1519 1519 1520 1523 1522 1521 1522 1521 1517 1518 1518 1513 1509 1510 1509 1509 1510 1509 1512 1512 1509 1512 1512 1509 1508 1510 1511 1510 1513 1517 1515 1519 1522 1511 1501 1500 1498 1499 1499 1496 1497 1497 1496 1499 1501 1498 1499 1501 1504 1511 1513 1515 1520 1510 1506 1520 1523 1522 1525 1514 1508 1514 1514 1514 1518 1518 1519 1518 1517 1517 1515 1515 1514
1531 1530 1529 1529 1529 1529 1526 1525 1525 1524 1524 1523 1522 1519 1516 1518 1521 1522 1524 1525 1523 1522 1521 1519 1517 1518 1516 1511 1510 1509 1511 1514 1512 1512 1512 1511 1515 1514 1510 1510 1510 1509 1509 1511 1515 1513 1513 1519 1513 1500 1499 1499 1496 1499 1507 1504 1496 1495 1498 1496 1498 1508 1511 1507 1513 1518 1520 1522 1513 1507 1514 1519 1520 1520 1512 1510 1514 1515 1515 1517 1518 1518 1517 1517 1516 1515 1515 1513
1531 1529 1529 1528 1529 1528 1525 1525 1524 1524 1525 1523 1521 1520 1518 1520 1523 1525 1526 1527 1525 1524 1523 1521 1519 1519 1517 1515 1513 1510 1512 1515 1512 1510 1510 1512 1515 1514 1510 1511 1509 1507 1510 1512 1514 1512 1511 1519 1520 1507 1499 1500 1500 1505 1515 1512 1499 1496 1496 1495 1499 1506 1509 1510 1511 1513 1517 1522 1520 1513 1512 1518 1520 1515 1512 1512 1512 1512 1514 1514 1515 1516 1516 1516 1516 1515 1514 1513
1531 1530 1528 1528 1528 1527 1524 1524 1524 1524 1524 1520 1518 1520 1520 1522 1525 1526 1527 1528 1527 1526 1525 1523 1522 1521 1519 1518 1517 1512 1511 1513 1511 1510 1509 1510 1513 1513 1511 1511 1510 1510 1513 1513 1513 1512 1511 1516 1521 1515 1504 1507 1514 1513 1510 1508 1504 1502 1503 1505 1506 1504 1505 1509 1508 1505 1510 1518 1522 1520 1519 1521 1518 1512 1512 1513 1512 1512 1512 1512 1513 1515 1515 1515 1515 1515 1514 1513
1532 1529 1527 1527 1527 1525 1524 1524 1522 1520 1519 1518 1518 1521 1524 1526 1527 1527 1528 1530 1528 1527 1527 1525 1524 1522 1521 1521 1518 1514 1514 1513 1510 1510 1510 1508 1511 1513 1514 1515 1515 1516 1517 1516 1514 1515 1516 1516 1519 1520 1517 1519 1521 1512 1505 1506 1506 1506 1507 1509 1511 1508 1510 1517 1514 1507 1508 1514 1518 1520 1522 1523 1517 1512 1512 1513 1512 1512 1512 1512 1512 1513 1514 1515 1515 1515 1514 1513
1531 1527 1526 1527 1526 1525 1525 1523 1519 1516 1519 1523 1524 1526 1528 1528 1528 1528 1528 1529 1527 1527 1527 1527 1525 1523 1522 1522 1518 1515 1517 1514 1509 1509 1510 1510 1511 1514 1517 1519 1519 1519 1520 1517 1515 1517 1520 1519 1519 1521 1523 1524 1518 1508 1506 1508 1507 1507 1508 1508 1509 1509 1513 1522 1524 1518 1515 1514 1514 1515 1520 1524 1518 1512 1512 1513 1513 1513 1512 1513 1511 1511 1514 1515 1514 1514 1514 1513
1530 1527 1526 1527 1526 1525 1525 1523 1518 1517 1521 1525 1526 1528 1530 1529 1529 1529 1527 1528 1528 1528 1528 1528 1526 1526 1525 1524 1521 1518 1519 1518 1511 1509 1510 1510 1513 1518 1519 1520 1520 1520 1520 1517 1516 1519 1521 1520 1521 1522 1521 1521 1516 1510 1511 1512 1511 1512 1509 1507 1510 1511 1513 1518 1520 1521 1521 1519 1519 1522 1524 1523 1518 1513 1512 1513 1514 1514 1513 1512 1511 1511 1513 1514 1513 1513 1512 1512
1531 1528 1526 1526 1525 1525 1524 1522 1521 1521 1523 1526 1528 1530 1531 1530 1531 1530 1528 1528 1529 1528 1529 1529 1528 1528 1526 1524 1522 1519 1521 1523 1517 1512 1513 1512 1514 1519 1519 1520 1521 1520 1521 1522 1521 1524 1524 1522 1524 1525 1524 1523 1522 1521 1522 1519 1517 1516 1512 1510 1512 1512 1513 1516 1516 1518 1521 1521 1522 1527 1526 1520 1515 1513 1512 1513 1515 1514 1512 1511 1510 1510 1511 1512 1512 1512 1511 1511
1530 1527 1524 1524 1525 1524 1523 1522 1523 1524 1525 1528 1530 1530 1530 1531 1533 1533 1530 1529 1529 1528 1529 1530 1529 1527 1525 1524 1524 1521 1520 1524 1521 1517 1516 1514 1514 1517 1519 1520 1521 1520 1521 1524 1523 1524 1525 1524 1525 1529 1530 1531 1531 1530 1526 1520 1517 1516 1514 1513 1513 1512 1515 1518 1519 1521 1524 1523 1522 1525 1526 1520 1515 1513 1513 1515 1515 1512 1511 1511 1510 1509 1510 1511 1511 1511 1511 1510
1531 1528 1525 1524 1524 1523 1521 1522 1524 1525 1526 1528 1530 1529 1530 1532 1533 1533 1532 1530 1530 1531 1531 1530 1529 1527 1526 1527 1528 1524 1519 1520 1523 1521 1519 1515 1513 1516 1519 1519 1521 1522 1523 1524 1524 1524 1525 1523 1521 1525 1527 1527 1528 1526 1519 1515 1517 1518 1516 1515 1514 1515 1515 1518 1523 1524 1526 1527 1524 1522 1525 1524 1517 1514 1515 1515 1512 1509 1510 1510 1509 1509 1510 1510 1510 1510 1509 1508
1532 1530 1528 1528 1527 1523 1521 1524 1526 1526 1527 1529 1530 1529 1529 1530 1530 1531 1532 1531 1531 1532 1532 1531 1529 1528 1529 1530 1529 1526 1521 1520 1522 1522 1521 1517 1513 1515 1519 1519 1520 1523 1523 1524 1525 1524 1525 1524 1519 1519 1522 1518 1518 1518 1514 1513 1517 1518 1517 1516 1515 1516 1516 1519 1524 1523 1523 1528 1526 1520 1521 1525 1521 1515 1513 1512 1509 1509 1510 1510 1508 1509 1510 1510 1510 1509 1508 1507
1532 1531 1530 1532 1531 1526 1525 1529 1529 1528 1528 1529 1529 1530 1530 1530 1529 1530 1532 1531 1531 1532 1532 1532 1531 1530 1530 1531 1530 1528 1525 1523 1523 1521 1520 1518 1515 1515 1518 1518 1520 1523 1524 1524 1524 1523 1526 1525 1519 1517 1519 1516 1514 1514 1512 1512 1514 1514 1515 1516 1515 1516 1518 1520 1522 1520 1520 1526 1527 1521 1520 1523 1520 1514 1511 1509 1508 1510 1511 1508 1508 1509 1510 1510 1510 1509 1507 1506
1533 1531 1531 1533 1532 1528 1528 1530 1531 1529 1529 1530 1530 1530 1530 1531 1529 1529 1531 1532 1532 1531 1531 1531 1531 1530 1530 1530 1531 1530 1528 1528 1529 1525 1521 1521 1519 1518 1519 1519 1521 1523 1523 1523 1523 1524 1526 1523 1518 1518 1519 1517 1514 1512 1510 1511 1512 1512 1513 1513 1513 1514 1515 1517 1518 1517 1518 1522 1521 1519 1521 1520 1515 1511 1509 1508 1508 1510 1511 1509 1509 1509 1509 1509 1509 1508 1506 1506
1536 1535 1534 1534 1532 1530 1529 1530 1530 1529 1530 1531 1531 1529 1529 1530 1530 1529 1529 1530 1531 1530 1530 1531 1530 1529 1530 1530 1531 1531 1528 1528 1530 1528 1525 1525 1524 1522 1521 1521 1520 1520 1522 1522 1522 1525 1528 1524 1518 1519 1522 1518 1511 1508 1509 1511 1513 1514 1514 1513 1512 1513 1516 1518 1517 1516 1519 1520 1518 1519 1522 1517 1510 1507 1507 1509 1510 1510 1510 1509 1509 1509 1509 1509 1509 1507 1506 1505
1538 1538 1537 1536 1533 1531 1529 1528 1527 1528 1528 1530 1530 1529 1529 1529 1529 1530 1529 1528 1529 1529 1527 1529 1530 1529 1530 1530 1530 1529 1527 1527 1527 1526 1526 1527 1526 1524 1523 1522 1521 1521 1522 1522 1522 1523 1527 1525 1519 1518 1522 1518 1509 1508 1511 1511 1513 1515 1514 1514 1514 1514 1517 1521 1520 1517 1518 1520 1520 1521 1520 1513 1506 1505 1508 1510 1510 1510 1509 1508 1508 1508 1509 1509 1508 1507 1506 1505
1538 1538 1537 1536 1533 1530 1528 1525 1524 1526 1528 1528 1528 1529 1530 1530 1530 1533 1533 1530 1529 1529 1528 1529 1531 1530 1530 1530 1529 1528 1527 1527 1526 1525 1525 1525 1524 1523 1523 1522 1521 1523 1522 1522 1523 1522 1522 1524 1522 1521 1523 1518 1508 1507 1510 1512 1517 1517 1511 1508 1509 1510 1514 1518 1518 1516 1515 1517 1520 1520 1516 1511 1507 1507 1510 1511 1510 1510 1509 1508 1508 1508 1509 1509 1508 1508 1506 1505